FW7372 Weather Reports


Display with metric or nautical units.
time (UTC)temp
F
wind
direction
speed
MPH
gust
MPH
rain 1hr
in
rain 24hr
in
rain mn
in
humidity
%
barometer
mb
20240625050739 83 31 14.0 25.0 0.00 0.00 0.00 87 1026.7
20240625045207 83 28 15.0 24.0 0.00 0.00 0.00 88 1026.8
20240625044706 83 43 11.0 28.0 0.00 0.00 0.00 88 1026.7
20240625044205 83 36 14.0 28.0 0.00 0.00 0.00 88 1027.1
20240625043705 83 30 13.0 25.0 0.00 0.00 0.00 89 1026.4
20240625043204 83 70 10.0 26.0 0.00 0.00 0.00 89 1027.1
20240625042147 83 29 10.0 23.0 0.00 0.00 0.00 90 1027.0
20240625041647 83 29 12.0 23.0 0.00 0.00 0.00 90 1027.1
20240625041146 83 43 13.0 22.0 0.00 0.00 0.00 90 1027.3
20240625040645 83 42 14.0 22.0 0.00 0.00 0.00 90 1027.2
20240625040143 83 40 14.0 21.0 0.00 0.00 0.00 90 1027.3
20240625035128 83 37 14.0 24.0 0.00 0.00 0.06 89 1027.6
20240625034627 83 44 18.0 24.0 0.00 0.00 0.06 88 1027.3
20240625034126 83 43 15.0 23.0 0.00 0.00 0.06 87 1027.4
20240625033625 83 42 13.0 23.0 0.00 0.00 0.06 87 1027.8
20240625033124 84 40 15.0 22.0 0.00 0.00 0.06 87 1027.9
20240625032623 83 40 14.0 24.0 0.00 0.00 0.06 87 1027.8
20240625032122 83 39 14.0 24.0 0.00 0.00 0.06 86 1028.0
20240625031622 83 40 14.0 23.0 0.00 0.00 0.06 87 1027.9
20240625031121 83 42 14.0 23.0 0.00 0.00 0.06 87 1028.0
20240625030620 83 36 13.0 24.0 0.00 0.00 0.06 87 1027.9
20240625030119 83 33 16.0 28.0 0.00 0.00 0.06 86 1027.9
20240625025102 83 29 15.0 25.0 0.00 0.00 0.06 87 1027.6
20240625024602 83 33 13.0 21.0 0.00 0.00 0.06 87 1027.8
20240625024101 83 26 12.0 23.0 0.00 0.00 0.06 87 1028.0
20240625023600 83 38 12.0 24.0 0.00 0.00 0.06 87 1027.7
20240625022543 83 43 12.0 22.0 0.00 0.00 0.06 88 1027.8
20240625022042 83 36 12.0 22.0 0.00 0.00 0.06 87 1027.6
20240625021541 83 39 17.0 22.0 0.00 0.00 0.06 87 1027.6
20240625020525 83 34 13.0 21.0 0.00 0.00 0.06 86 1027.8
20240625020024 83 31 12.0 21.0 0.00 0.00 0.06 86 1027.5
20240625015523 83 61 9.0 21.0 0.00 0.00 0.06 86 1027.9
20240625015023 83 61 10.0 20.0 0.00 0.00 0.06 86 1027.9
20240625014522 83 47 9.0 19.0 0.00 0.00 0.06 85 1027.9
20240625014021 83 36 9.0 20.0 0.00 0.00 0.06 86 1027.9
20240625013004 83 29 10.0 21.0 0.00 0.00 0.06 85 1028.1
20240625012503 83 43 13.0 21.0 0.00 0.00 0.06 86 1027.9
20240625012002 84 47 8.0 16.0 0.00 0.00 0.06 86 1028.0
20240625011501 84 29 9.0 16.0 0.00 0.00 0.06 85 1027.8
20240625011002 84 38 9.0 16.0 0.00 0.00 0.06 85 1028.2
20240625010500 84 43 7.0 15.0 0.00 0.00 0.06 85 1027.9
20240625005959 84 25 9.0 17.0 0.00 0.00 0.06 84 1027.9
20240625005458 83 36 7.0 19.0 0.00 0.00 0.06 84 1027.8
20240625004957 83 47 10.0 20.0 0.00 0.00 0.06 84 1027.7
20240625004456 83 54 11.0 22.0 0.00 0.00 0.06 84 1027.8
20240625003439 83 25 13.0 22.0 0.00 0.00 0.06 85 1027.6
20240625002938 83 41 11.0 21.0 0.00 0.00 0.06 85 1027.8
20240625002437 84 30 11.0 21.0 0.00 0.00 0.06 85 1027.4
20240625001936 84 41 11.0 17.0 0.00 0.00 0.06 84 1027.4
20240625001435 83 50 9.0 17.0 0.00 0.00 0.06 85 1027.4
20240625000934 83 40 9.0 16.0 0.00 0.00 0.06 85 1027.3
20240625000433 83 53 11.0 20.0 0.00 0.00 0.06 85 1027.1
20240624235932 83 31 10.0 20.0 0.00 0.00 0.06 85 1027.1
20240624235431 83 65 8.0 15.0 0.00 0.00 0.06 85 1027.1
20240624234930 83 74 8.0 19.0 0.00 0.00 0.06 85 1026.9
20240624234429 83 64 10.0 19.0 0.00 0.00 0.06 85 1026.9
20240624233928 84 37 8.0 16.0 0.00 0.00 0.06 85 1027.1
20240624233427 84 65 8.0 19.0 0.00 0.00 0.06 85 1027.2
20240624232410 84 48 8.0 15.0 0.00 0.00 0.06 84 1026.7
20240624231353 84 74 10.0 19.0 0.00 0.00 0.06 84 1026.9
20240624230852 84 56 14.0 21.0 0.00 0.00 0.06 84 1026.8
20240624230351 84 65 9.0 21.0 0.00 0.00 0.06 84 1026.8
20240624225335 84 51 8.0 22.0 0.00 0.00 0.06 84 1026.6
20240624224834 84 62 12.0 20.0 0.00 0.00 0.06 84 1026.5
20240624224333 84 45 11.0 20.0 0.00 0.00 0.06 84 1026.5
20240624223832 84 46 11.0 17.0 0.00 0.00 0.06 84 1026.1
20240624223331 84 72 8.0 15.0 0.00 0.00 0.06 84 1026.2
20240624222830 84 47 9.0 16.0 0.00 0.00 0.06 84 1025.8
20240624221823 84 58 8.0 17.0 0.00 0.00 0.06 84 1026.1
20240624221322 84 63 8.0 17.0 0.00 0.00 0.06 84 1026.0
20240624220821 84 57 11.0 16.0 0.00 0.00 0.06 84 1026.0
20240624215804 84 66 9.0 19.0 0.00 0.00 0.06 83 1025.9
20240624215306 84 68 10.0 22.0 0.00 0.00 0.06 83 1025.9
20240624214246 84 71 9.0 15.0 0.00 0.00 0.06 83 1025.7
20240624213745 84 68 8.0 17.0 0.00 0.00 0.06 83 1025.7
20240624213244 84 55 10.0 17.0 0.00 0.00 0.06 83 1025.8
20240624212743 84 59 9.0 20.0 0.00 0.00 0.06 83 1025.6
20240624212242 84 66 10.0 20.0 0.00 0.00 0.06 83 1025.5
20240624211741 84 58 10.0 20.0 0.00 0.00 0.06 83 1025.6
20240624211240 84 47 12.0 20.0 0.00 0.00 0.06 83 1025.6
20240624210739 84 71 8.0 17.0 0.00 0.00 0.06 82 1025.5
20240624210239 84 49 10.0 19.0 0.00 0.00 0.06 83 1025.6
20240624205738 84 59 10.0 20.0 0.00 0.00 0.06 83 1025.5
20240624205237 84 75 10.0 20.0 0.00 0.00 0.06 84 1025.6
20240624204736 84 70 10.0 16.0 0.00 0.00 0.06 84 1025.7
20240624204235 84 67 8.0 19.0 0.00 0.00 0.06 84 1025.6
20240624203218 84 53 12.0 19.0 0.00 0.00 0.06 84 1025.4
20240624202717 84 61 11.0 17.0 0.00 0.00 0.06 86 1025.5
20240624202216 84 46 11.0 17.0 0.00 0.00 0.06 86 1025.8
20240624201715 84 76 8.0 17.0 0.00 0.00 0.06 86 1025.8
20240624201214 84 73 8.0 17.0 0.00 0.00 0.06 86 1025.8
20240624200714 84 69 11.0 17.0 0.00 0.00 0.06 86 1025.6
20240624200213 84 69 11.0 17.0 0.00 0.00 0.06 86 1025.7
20240624195712 84 47 7.0 14.0 0.00 0.00 0.06 87 1025.8
20240624195211 84 74 9.0 19.0 0.00 0.00 0.06 86 1025.7
20240624194710 84 75 9.0 15.0 0.00 0.00 0.06 86 1026.2
20240624194209 84 70 9.0 15.0 0.00 0.00 0.06 85 1026.3
20240624193708 84 60 10.0 15.0 0.00 0.00 0.06 85 1026.1
20240624193208 84 52 8.0 15.0 0.00 0.00 0.06 85 1026.1
20240624192707 84 48 7.0 16.0 0.00 0.00 0.06 85 1026.1
20240624192206 84 56 10.0 16.0 0.00 0.00 0.06 85 1026.0
20240624191705 84 53 7.0 17.0 0.00 0.00 0.06 86 1026.2
20240624191204 84 72 8.0 19.0 0.00 0.00 0.06 86 1026.3
20240624190703 84 57 11.0 19.0 0.00 0.00 0.06 85 1026.4
20240624185646 84 33 9.0 15.0 0.00 0.00 0.06 85 1026.5
20240624185145 85 90 7.0 15.0 0.00 0.00 0.06 84 1026.4
20240624184644 84 90 8.0 17.0 0.00 0.00 0.06 83 1026.6
20240624184143 85 59 7.0 17.0 0.00 0.00 0.06 83 1026.5
20240624183642 84 88 9.0 17.0 0.00 0.00 0.06 81 1026.5
20240624183141 84 83 8.0 17.0 0.00 0.00 0.06 81 1026.6
20240624182124 84 97 8.0 15.0 0.00 0.00 0.06 81 1026.5
20240624181623 84 83 9.0 15.0 0.00 0.00 0.06 82 1026.4
20240624181122 84 85 8.0 16.0 0.00 0.00 0.06 84 1026.7
20240624180621 84 92 9.0 17.0 0.00 0.00 0.06 84 1026.6
20240624180120 84 89 6.0 17.0 0.00 0.00 0.06 85 1026.5
20240624175619 84 83 9.0 16.0 0.00 0.00 0.06 85 1026.8
20240624175118 84 76 8.0 16.0 0.00 0.00 0.06 86 1026.6
20240624174617 84 76 8.0 17.0 0.00 0.00 0.06 85 1026.8
20240624174116 83 86 12.0 17.0 0.00 0.00 0.06 85 1027.0
20240624173615 83 74 8.0 16.0 0.00 0.00 0.06 86 1026.9
20240624173114 83 82 10.0 16.0 0.00 0.00 0.06 86 1026.8
20240624172613 83 81 8.0 15.0 0.00 0.00 0.06 87 1027.2
20240624171556 83 88 8.0 19.0 0.00 0.00 0.06 88 1027.2
20240624171055 83 77 8.0 19.0 0.02 0.00 0.06 89 1027.3
20240624170554 83 95 9.0 15.0 0.05 0.00 0.06 89 1027.3
20240624170053 82 92 11.0 16.0 0.05 0.00 0.06 88 1027.3
20240624165552 82 91 7.0 16.0 0.05 0.00 0.06 89 1027.4
20240624165051 82 103 8.0 13.0 0.05 0.00 0.06 89 1027.7
20240624164550 82 105 6.0 13.0 0.05 0.00 0.06 89 1027.7
20240624164049 82 107 7.0 12.0 0.05 0.00 0.06 89 1027.6
20240624163548 82 87 5.0 12.0 0.05 0.00 0.06 89 1028.2
20240624162531 81 95 5.0 13.0 0.05 0.00 0.06 88 1028.2
20240624161514 81 74 9.0 16.0 0.05 0.00 0.06 84 1028.3
20240624161013 83 89 10.0 20.0 0.03 0.00 0.03 80 1027.9
20240624160512 87 94 10.0 20.0 0.00 0.00 0.01 78 1028.3
20240624155456 87 85 9.0 15.0 0.00 0.00 0.00 80 1027.9
20240624154955 87 78 9.0 15.0 0.00 0.00 0.00 82 1027.8
20240624154454 87 75 9.0 15.0 0.00 0.00 0.00 82 1027.7
20240624153953 87 86 8.0 17.0 0.00 0.00 0.00 82 1027.6
20240624153452 87 69 8.0 17.0 0.00 0.00 0.00 84 1027.7
20240624152951 86 69 9.0 19.0 0.00 0.00 0.00 83 1027.5
20240624151934 86 61 12.0 22.0 0.00 0.00 0.00 83 1027.7
20240624150917 86 64 10.0 19.0 0.00 0.00 0.00 84 1027.6
20240624145344 86 61 11.0 20.0 0.00 0.00 0.00 83 1027.5
20240624144843 86 64 13.0 20.0 0.00 0.00 0.00 83 1027.8
20240624144342 86 64 10.0 20.0 0.00 0.00 0.00 85 1027.4
20240624143842 86 54 12.0 20.0 0.00 0.00 0.00 84 1027.3
20240624143338 86 48 11.0 15.0 0.00 0.00 0.00 83 1027.4
20240624142837 86 48 10.0 15.0 0.00 0.00 0.00 83 1027.1
20240624142336 87 47 9.0 15.0 0.00 0.00 0.00 83 1027.2
20240624141836 86 49 8.0 17.0 0.00 0.00 0.00 83 1027.3
20240624141335 86 41 10.0 17.0 0.00 0.00 0.00 83 1027.2
20240624140835 87 73 10.0 17.0 0.00 0.00 0.00 82 1027.5
20240624140334 87 65 10.0 17.0 0.00 0.00 0.00 83 1027.4
20240624135832 86 49 10.0 17.0 0.00 0.00 0.00 85 1027.2
20240624135332 86 63 10.0 21.0 0.00 0.00 0.00 85 1027.0
20240624134314 86 63 12.0 20.0 0.00 0.00 0.00 84 1027.4
20240624133813 85 60 12.0 20.0 0.00 0.00 0.00 85 1027.3
20240624133313 86 52 10.0 17.0 0.00 0.00 0.00 84 1026.9
20240624132256 87 47 10.0 17.0 0.00 0.00 0.00 82 1027.1
20240624131755 87 43 10.0 15.0 0.00 0.00 0.00 81 1026.8
20240624131253 87 50 8.0 16.0 0.00 0.00 0.00 83 1027.1
20240624130753 86 52 9.0 19.0 0.00 0.00 0.00 83 1026.8
20240624130252 86 81 8.0 19.0 0.00 0.00 0.00 84 1026.6
20240624125235 86 66 10.0 19.0 0.00 0.00 0.00 84 1026.7
20240624124733 86 51 11.0 17.0 0.00 0.00 0.00 85 1026.7
20240624124233 85 48 10.0 14.0 0.00 0.00 0.00 87 1026.9
20240624123216 84 59 8.0 15.0 0.00 0.00 0.00 88 1026.9
20240624122200 84 61 9.0 16.0 0.00 0.00 0.00 88 1026.6
20240624121659 84 48 11.0 16.0 0.00 0.00 0.00 89 1026.8
20240624121158 84 52 9.0 16.0 0.00 0.00 0.00 89 1026.7
20240624120657 84 58 10.0 16.0 0.00 0.00 0.00 88 1026.6
20240624120156 84 58 10.0 17.0 0.00 0.00 0.00 87 1026.6
20240624115655 85 66 7.0 17.0 0.00 0.00 0.00 87 1026.4
20240624115154 85 66 8.0 14.0 0.00 0.00 0.00 87 1026.4
20240624114652 85 58 7.0 14.0 0.00 0.00 0.00 86 1026.5
20240624114151 85 46 9.0 14.0 0.00 0.00 0.00 86 1026.3
20240624113651 85 54 8.0 17.0 0.00 0.00 0.00 86 1026.2
20240624113150 85 45 8.0 17.0 0.00 0.00 0.00 85 1026.3
20240624112649 85 65 7.0 13.0 0.00 0.00 0.00 86 1026.4
20240624111632 85 50 9.0 16.0 0.00 0.00 0.00 86 1026.4
20240624111131 84 61 8.0 17.0 0.00 0.00 0.00 86 1026.3
20240624110630 84 75 8.0 17.0 0.00 0.00 0.00 87 1026.3
20240624110130 84 57 13.0 16.0 0.00 0.00 0.00 87 1026.3
20240624105629 84 97 8.0 15.0 0.00 0.00 0.00 87 1026.4
20240624105128 84 77 9.0 20.0 0.00 0.00 0.00 87 1026.2
20240624103555 83 98 8.0 15.0 0.00 0.00 0.00 87 1025.8
20240624103054 83 91 8.0 13.0 0.00 0.00 0.00 88 1025.9
20240624102037 83 92 6.0 13.0 0.00 0.00 0.00 88 1025.8
20240624101020 82 60 7.0 15.0 0.00 0.00 0.00 89 1025.9
20240624100519 82 95 8.0 15.0 0.00 0.00 0.00 90 1025.7
20240624100018 82 73 6.0 15.0 0.00 0.00 0.00 90 1025.9
20240624095517 82 88 7.0 15.0 0.00 0.00 0.00 90 1025.7
20240624094500 82 84 8.0 14.0 0.00 0.00 0.00 90 1025.5
20240624093959 82 82 7.0 14.0 0.00 0.00 0.00 90 1025.5
20240624093458 82 64 9.0 14.0 0.00 0.00 0.00 90 1025.4
20240624092957 82 70 6.0 14.0 0.00 0.00 0.00 90 1025.3
20240624092456 82 75 6.0 16.0 0.00 0.00 0.00 90 1025.3
20240624091955 82 57 7.0 16.0 0.00 0.00 0.00 90 1025.2
20240624090442 82 80 6.0 13.0 0.00 0.00 0.00 90 1025.3
20240624085941 82 89 7.0 13.0 0.00 0.00 0.00 90 1025.3
20240624085440 82 90 8.0 13.0 0.00 0.00 0.00 91 1025.3
20240624084939 82 77 8.0 15.0 0.00 0.00 0.00 91 1025.0
20240624084438 82 56 9.0 15.0 0.00 0.00 0.00 91 1025.3
20240624083937 82 69 9.0 15.0 0.00 0.00 0.00 91 1025.2
20240624083436 82 56 7.0 14.0 0.00 0.00 0.00 92 1025.1
20240624082935 81 83 5.0 14.0 0.00 0.00 0.00 92 1025.5
20240624082434 81 78 8.0 13.0 0.00 0.00 0.00 92 1025.3
20240624081933 81 92 8.0 13.0 0.00 0.00 0.00 93 1025.4
20240624081432 81 94 7.0 13.0 0.00 0.00 0.00 93 1025.8
20240624080931 81 92 7.0 13.0 0.00 0.00 0.00 93 1025.4
20240624080430 81 81 5.0 12.0 0.00 0.00 0.00 94 1025.2
20240624075929 81 85 3.0 12.0 0.00 0.00 0.00 94 1025.4
20240624075428 81 26 5.0 12.0 0.00 0.00 0.00 93 1025.3
20240624074927 81 84 6.0 12.0 0.00 0.00 0.00 93 1025.5
20240624074426 81 83 6.0 12.0 0.00 0.00 0.00 93 1025.3
20240624073409 81 69 5.0 16.0 0.00 0.00 0.00 92 1025.5
20240624072909 81 65 8.0 16.0 0.00 0.00 0.00 91 1025.3
20240624072408 82 44 9.0 14.0 0.00 0.00 0.00 92 1025.2
20240624071907 82 33 7.0 14.0 0.00 0.00 0.00 92 1025.2
20240624071406 82 51 5.0 12.0 0.00 0.00 0.00 92 1025.1
20240624070905 82 76 4.0 12.0 0.00 0.00 0.00 91 1025.0
20240624070404 82 69 5.0 12.0 0.00 0.00 0.00 91 1025.1
20240624065903 82 74 5.0 15.0 0.00 0.00 0.00 91 1025.1
20240624065402 82 57 5.0 15.0 0.00 0.00 0.00 91 1025.4
20240624064902 82 33 9.0 15.0 0.00 0.00 0.00 91 1025.1
20240624064402 82 36 8.0 14.0 0.00 0.00 0.00 91 1025.1
20240624063901 81 59 8.0 14.0 0.00 0.00 0.00 90 1025.3
20240624063400 81 60 6.0 13.0 0.00 0.00 0.00 89 1025.4
20240624062859 81 76 7.0 13.0 0.00 0.00 0.00 89 1025.0
20240624062358 81 74 6.0 13.0 0.00 0.00 0.00 89 1025.0
20240624061858 81 89 7.0 13.0 0.00 0.00 0.00 89 1025.3
20240624061357 81 64 7.0 13.0 0.00 0.00 0.00 89 1025.4
20240624060856 81 91 7.0 13.0 0.00 0.00 0.00 89 1025.4
20240624060355 81 94 6.0 13.0 0.00 0.00 0.00 89 1025.4
20240624055854 81 91 6.0 14.0 0.00 0.00 0.00 89 1025.4
20240624055353 81 86 7.0 16.0 0.00 0.00 0.00 89 1025.4
20240624054852 81 82 9.0 16.0 0.00 0.00 0.00 89 1025.7
20240624054351 81 71 7.0 20.0 0.00 0.00 0.00 89 1025.7
20240624053850 82 37 12.0 20.0 0.00 0.00 0.00 88 1025.6
20240624052833 82 73 9.0 17.0 0.00 0.00 0.00 87 1025.5
20240624052332 82 85 8.0 17.0 0.00 0.00 0.00 86 1025.5
20240624051831 82 72 7.0 17.0 0.00 0.00 0.00 85 1025.7
20240624051331 81 93 7.0 16.0 0.00 0.00 0.00 85 1025.7